Regional Weather Roundup
Issued by NWS

Home | Current Version | Previous Version | Graphics & Text | Print | Product List | Glossary On
Versions: 1 2 3 4 5 6 7 8 9 10 11 12 13 14 15 16 17 18 19 20 21 22 23 24 25 26 27 28 29 30 31 32 33 34 35 36 37 38 39 40 41 42 43 44 45 46 47 48 49 50
000
ASUS43 KMKX 311900
RWRWI

WISCONSIN REGIONAL WEATHER ROUNDUP
NATIONAL WEATHER SERVICE MILWAUKEE/SULLIVAN WI
200 PM CDT WED AUG 31 2016

NOTE: "FAIR" INDICATES FEW OR NO CLOUDS BELOW 12,000 FEET WITH NO
SIGNIFICANT WEATHER AND/OR OBSTRUCTIONS TO VISIBILITY.

WIZ001-002-006>008-014>016-023>028-312000-
NORTHWEST WISCONSIN

CITY           SKY/WX    TMP DP  RH WIND       PRES   REMARKS
SUPERIOR ARPT  MOSUNNY   74  51  44 CALM      30.19S
ASHLAND        PTSUNNY   74  57  55 VRB7      30.20R
HAYWARD        MOSUNNY   72  52  49 VRB3      30.20S
SIREN          SUNNY     73  47  38 N9        30.20F
CUMBERLAND     MOSUNNY   70  50  49 N7        30.21R
RICE LAKE      SUNNY     73  51  45 N5        30.21S
CHETEK         NOT AVBL
LADYSMITH      MOSUNNY   73  52  46 N7        30.20F
EAU CLAIRE     NOT AVBL
MENOMONIE      SUNNY     75  50  41 N3        30.19R
NEW RICHMOND   SUNNY     74  48  40 N8        30.20F
OSCEOLA        SUNNY     74  51  44 N9        30.23S
$$

WIZ003>005-009-010-017-018-312000-
NORTH CENTRAL WISCONSIN

CITY           SKY/WX    TMP DP  RH WIND       PRES   REMARKS
MANITOWISH WTR NOT AVBL
ARBOR VITAE    MOSUNNY   72  55  54 N10G20    30.19R
WOODRUFF       MOSUNNY   72  55  54 N10G20    30.19R
RHINELANDER    CLOUDY    70  55  59 N6        30.18S
EAGLE RIVER    PTSUNNY   68  51  54 N10       30.17S
LAND O LAKES   CLOUDY    66  53  61 NW8       30.20R
PHILLIPS       PTSUNNY   70  53  56 N7        30.18S
TOMAHAWK       MOSUNNY   70  51  51 N6        30.18S
MEDFORD        MOSUNNY   71  53  51 N10G17    30.18S
MERRILL        PTSUNNY   70  54  56 N8        30.18R
$$

WIZ029-030-035-036-043>047-312000-
CENTRAL WISCONSIN

CITY           SKY/WX    TMP DP  RH WIND       PRES   REMARKS
WAUSAU         PTSUNNY   73  52  47 N10       30.15S
MOSINEE        NOT AVBL
MARSHFIELD     PTSUNNY   76  52  43 N7        30.16S
STEVENS POINT  MOSUNNY   73  51  46 N7G16     30.16S
WAUPACA        SUNNY     79  50  36 N7        30.13F
WAUTOMA        MOSUNNY   76  53  44 N6        30.13F
WISC RAPIDS    MOSUNNY   77  54  44 N9        30.16S
CAMP DOUGLAS   NOT AVBL
$$

WIZ011>013-019>022-031-037>040-048>050-312000-
NORTHEAST WISCONSIN

CITY           SKY/WX    TMP DP  RH WIND       PRES   REMARKS
ANTIGO         MOSUNNY   71  52  50 N10       30.17S
SHAWANO        PTSUNNY   77  55  45 NE7       30.13S
OCONTO         NOT AVBL
STURGEON BAY   PTSUNNY   72  53  51 N9        30.13
GREEN BAY      PTSUNNY   75  56  51 NE10      30.12S
MANITOWOC      NOT AVBL
APPLETON       PTSUNNY   73  50  43 N10       30.12S
CLINTONVILLE   CLOUDY    73  50  43 N9        30.13S
OSHKOSH        MOSUNNY   76  53  44 N12       30.11F
$$

WIZ032>034-041-042-053>061-312000-
SOUTHWEST WISCONSIN

CITY           SKY/WX    TMP DP  RH WIND       PRES   REMARKS
LA CROSSE      SUNNY     78  53  41 N8        30.15F
SPARTA         SUNNY     74  53  47 N7        30.16S
VIROQUA        SUNNY     74  56  53 N8        30.17S
BOSCOBEL       SUNNY     80  54  40 NW6       30.14S HX  80
PRAIRIE DU CHI SUNNY     75  51  42 N6        30.14S
PLATTEVILLE    SUNNY     74  60  60 N9G16     30.14S
$$

WIZ056-057-062-063-064-067-068-312000-
SOUTH CENTRAL WISCONSIN

CITY           SKY/WX    TMP DP  RH WIND       PRES   REMARKS
REEDSBURG      NOT AVBL
BARABOO/DELLS  SUNNY     74  49  41 NW6       30.14S
LONE ROCK      NOT AVBL
MINERAL POINT  SUNNY     75  50  41 N13       30.15S
MADISON        MOSUNNY   76  54  46 NE10G21   30.12S
MIDDLETON      SUNNY     76  54  47 N8        30.13S
WATERTOWN      SUNNY     73  56  53 N9G17     30.11S
MONROE         SUNNY     73  52  46 N12       30.13S
JANESVILLE     MOSUNNY   75  54  46 VRB8      30.10F
$$

WIZ051-052-058>065-066-070>072-312000-
SOUTHEAST WISCONSIN

CITY           SKY/WX    TMP DP  RH WIND       PRES   REMARKS
MILWAUKEE      MOSUNNY   74  53  48 NE15      30.12R
WAUKESHA       NOT AVBL
MILWAUKEE/TIMM SUNNY     75  50  41 NE6       30.11S
RACINE         SUNNY     73  55  53 N15G23    30.12S
BURLINGTON     SUNNY     75  54  48 N7        30.10S
KENOSHA        MOSUNNY   75  58  55 N14       30.11S
FOND DU LAC    SUNNY     75  54  47 NE14      30.12F
SHEBOYGAN      MOSUNNY   74  54  49 E12       30.11S
WEST BEND      SUNNY     73  50  43 N9        30.11S
JUNEAU         SUNNY     73  52  48 N7        30.13F
$$

LSZ147-162-312000-
LAKE SUPERIOR

STATION/POSITION TIME  TEMP    WIND        PRES    WAVE
                       AIR SEA DIR/SP/G            HT/PER
                 (UTC) (F)     (DEG/KT/KT) (MB)    (FT/S)
W MID LAKE BUOY  1750   65 67  320/  6/  8 1021.7F   1/ 3
DEVILS ISLAND    1800   65     330/  4/  4 1022.6F
PORT WING        1800   68     310/  3/  4 1022.7
SAXON HARBOR     1840   69      10/  7/  9 1022.4S
$$

LMZ867-665-643>646-312000-
LAKE MICHIGAN

STATION/POSITION TIME  TEMP    WIND        PRES    WAVE
                       AIR SEA DIR/SP/G            HT/PER
                 (UTC) (F)     (DEG/KT/KT) (MB)    (FT/S)
CHAMBERS ISLAND  1800   72     250/  2/  7 1019.3
S GREEN BAY BUOY 1800   68 73   80/  4/  6 1019.5
N MID LAKE BUOY  1750   69 71  310/ 10/ 12 1018.5F   1/ 4
NORTHPORT PIER   1800   70     330/  7/  9 1019.3F
SISTER BAY       1737   75     330/  6/  7   N/A
ALGOMA LAKESHORE 1815          350/  4/  6   N/A
KEWAUNEE LAKESHO 1800   71      80/  5/  8 1019.1F
SHEBOYGAN LAKESH 1800   65      40/ 10/ 10 1019.3F
PORT WASHINGTON  1840   70      60/  4/  6 1020.3S
ATWATER BUOY     1800   68      40/ 10/ 14   N/A
MILWAUKEE LAKESH 1810   66      30/ 11/ 12   N/A
S MID LAKE BUOY  1750   70 75   20/ 17/ 21 1017.6S   5/ 6
KENOSHA   LAKESH 1800   68      20/ 16/ 18 1019.0S
$$

TC  - TEMPERATURE IN CELSIUS
VSB - VISIBILITY IN STATUTE MILES
WCI - WIND CHILL INDEX
HX  - HEAT INDEX





USA.gov is the U.S. government's official web portal to all federal, state and local government web resources and services.